Coolangatta, Australia

6:55 AM AEST on June 28, 2017 (GMT +1000)
Coolangatta

Weather History for YBCG - November, 2013

Change the Weather History Date:

Saturday, November 16, 2013

  Actual Average Record
Temperature  
Mean Temperature 69 °F -  
Max Temperature 76 °F - - ()
Min Temperature 62 °F - - ()
Cooling Degree Days 4    
Growing Degree Days 19 (Base 50)    
Moisture  
Dew Point 64 °F    
Average Humidity 84    
Maximum Humidity 94    
Minimum Humidity 57    
Precipitation  
Precipitation 0.39 in - - ()
Sea Level Pressure  
Sea Level Pressure 29.85 in    
Wind  
Wind Speed 7 mph ()    
Max Wind Speed 22 mph    
Max Gust Speed 38 mph    
Visibility 5.9 miles    
Events      
T = Trace of Precipitation, MM = Missing Value Source: Averaged Metar Reports

Daily Weather History Graph

Daily Weather History Graph

Search for Another Location

Airport or City:

Trip Planner

Search our weather history database for the weather conditions in past years. The results will help you decide how hot, cold, wet, or windy it might be!

Date:

Astronomy

Nov. 16, 2013 Rise Set
Actual Time 4:44 AM AEST 6:16 PM AEST
Civil Twilight 4:19 AM AEST 6:42 PM AEST
Nautical Twilight 3:48 AM AEST 7:13 PM AEST
Astronomical Twilight 3:17 AM AEST 7:45 PM AEST
Moon 5:00 PM AEST (11/16) 3:34 AM AEST (11/16)
Length of Visible Light 14h 23m
Length of Day
13h 31m
Waxing Gibbous, 98% of the Moon is Illuminated
Nov 16
Waxing Gibbous
Nov 18
Full
Nov 26
Last Quarter
Dec 3
New
Dec 10
First Quarter

Hourly Weather History & Observations

Time (AEST) Temp. Dew Point Humidity Pressure Visibility Wind Dir Wind Speed Gust Speed Precip Events Conditions
12:00 AM 68 °F 66 °F 92% 29.88 in - WSW 8.1 mph - -  
12:00 AM 68.0 °F 66.2 °F 94% 29.86 in 6.2 mi WSW 8.1 mph - N/A   Scattered Clouds
12:30 AM 68.0 °F 66.2 °F 94% 29.86 in 6.2 mi SW 8.1 mph - N/A   Overcast
12:42 AM 68.0 °F 66.2 °F 94% 29.86 in 3.1 mi West 4.6 mph - N/A   Overcast
12:43 AM 68.0 °F 66.2 °F 94% 29.86 in 3.1 mi WNW 4.6 mph - N/A   Overcast
1:00 AM 68.0 °F 66.2 °F 94% 29.86 in 6.2 mi SE 2.3 mph - N/A   Scattered Clouds
1:04 AM 68.0 °F 66.2 °F 94% 29.86 in 6.2 mi South 3.5 mph - N/A   Scattered Clouds
1:08 AM 68.0 °F 66.2 °F 94% 29.86 in 6.2 mi SW 3.5 mph - N/A   Scattered Clouds
1:30 AM 68.0 °F 66.2 °F 94% 29.86 in 6.2 mi SW 4.6 mph - N/A   Mostly Cloudy
2:00 AM 68.0 °F 66.2 °F 94% 29.86 in 6.2 mi West 5.8 mph - N/A   Overcast
2:30 AM 68.0 °F 66.2 °F 94% 29.83 in 6.2 mi SE 2.3 mph - N/A   Overcast
3:00 AM 68 °F 66 °F 92% 29.85 in - South 4.6 mph - -   Overcast
3:00 AM 68.0 °F 66.2 °F 94% 29.83 in 6.2 mi South 4.6 mph - N/A   Mostly Cloudy
3:30 AM 68.0 °F 66.2 °F 94% 29.83 in 6.2 mi South 3.5 mph - N/A   Scattered Clouds
4:00 AM 68.0 °F 66.2 °F 94% 29.86 in 6.2 mi SSE 3.5 mph - N/A   Overcast
4:30 AM 68.0 °F 66.2 °F 94% 29.86 in 6.2 mi South 2.3 mph - N/A   Overcast
5:00 AM 68.0 °F 66.2 °F 94% 29.86 in 6.2 mi South 6.9 mph - N/A   Overcast
5:30 AM 68.0 °F 66.2 °F 94% 29.86 in 6.2 mi South 5.8 mph - N/A   Overcast
6:00 AM 69 °F 66 °F 89% 29.88 in - South 4.6 mph - -   Overcast
6:00 AM 68.0 °F 66.2 °F 94% 29.86 in 6.2 mi South 4.6 mph - N/A   Overcast
6:29 AM 68.0 °F 64.4 °F 88% 29.89 in 2.5 mi WSW 4.6 mph - N/A   Overcast
6:30 AM 68.0 °F 64.4 °F 88% 29.89 in 1.4 mi WSW 4.6 mph - N/A   Overcast
6:52 AM 68.0 °F 64.4 °F 88% 29.89 in 6.2 mi West 1.2 mph - N/A   Overcast
7:00 AM 69.8 °F 66.2 °F 88% 29.89 in 6.2 mi SSW 4.6 mph - N/A   Overcast
7:30 AM 69.8 °F 66.2 °F 88% 29.89 in 6.2 mi South 5.8 mph - N/A   Mostly Cloudy
8:00 AM 71.6 °F 66.2 °F 83% 29.89 in 6.2 mi SE 4.6 mph - N/A   Mostly Cloudy
8:30 AM 73.4 °F 66.2 °F 78% 29.89 in 6.2 mi East 8.1 mph - N/A   Scattered Clouds
9:00 AM 75 °F 65 °F 65% 29.88 in - ESE 5.8 mph - -  
9:00 AM 75.2 °F 66.2 °F 73% 29.89 in 6.2 mi ESE 5.8 mph - N/A   Scattered Clouds
9:30 AM 73.4 °F 62.6 °F 69% 29.89 in 6.2 mi ENE 10.4 mph - N/A   Mostly Cloudy
10:00 AM 73.4 °F 64.4 °F 73% 29.86 in 6.2 mi NNE 11.5 mph - N/A   Mostly Cloudy
10:30 AM 75.2 °F 66.2 °F 73% 29.86 in 6.2 mi NNE 9.2 mph - N/A   Mostly Cloudy
11:00 AM 75.2 °F 66.2 °F 73% 29.86 in 6.2 mi North 9.2 mph - N/A   Scattered Clouds
11:30 AM 75.2 °F 66.2 °F 73% 29.83 in 6.2 mi NNE 9.2 mph - N/A   Scattered Clouds
12:00 PM 76 °F 64 °F 57% 29.84 in - NE 10.4 mph - -  
12:00 PM 75.2 °F 64.4 °F 69% 29.83 in 6.2 mi NE 10.4 mph - N/A   Unknown
12:30 PM 75.2 °F 64.4 °F 69% 29.80 in 6.2 mi NNE 11.5 mph - N/A   Unknown
1:00 PM 73.4 °F 64.4 °F 73% 29.80 in 6.2 mi NNE 12.7 mph - N/A   Unknown
1:30 PM 73.4 °F 66.2 °F 78% 29.77 in 6.2 mi NNE 16.1 mph - N/A   Unknown
2:00 PM 73.4 °F 66.2 °F 78% 29.77 in 6.2 mi North 15.0 mph - N/A   Scattered Clouds
2:30 PM 71.6 °F 68.0 °F 88% 29.77 in 6.2 mi North 12.7 mph - N/A   Mostly Cloudy
2:46 PM 68.0 °F 60.8 °F 78% 29.80 in 6.2 mi SSW 15.0 mph - N/A   Overcast
3:00 PM 66 °F 61 °F 78% 29.80 in - South 18.4 mph - -   Overcast
3:00 PM 66.2 °F 60.8 °F 83% 29.80 in 6.2 mi South 18.4 mph - N/A   Overcast
3:10 PM 66.2 °F 62.6 °F 88% 29.77 in 6.2 mi SSE 12.7 mph - N/A   Overcast
3:30 PM 69.8 °F 64.4 °F 83% 29.77 in 6.2 mi ESE 6.9 mph - N/A   Mostly Cloudy
4:00 PM 71.6 °F 64.4 °F 78% 29.77 in 6.2 mi ENE 12.7 mph - N/A   Unknown
4:30 PM 73.4 °F 64.4 °F 73% 29.77 in 6.2 mi ENE 11.5 mph - N/A   Scattered Clouds
5:00 PM 73.4 °F 66.2 °F 78% 29.77 in 6.2 mi ENE 10.4 mph - N/A   Scattered Clouds
5:30 PM 71.6 °F 64.4 °F 78% 29.77 in 6.2 mi NNE 4.6 mph - N/A   Overcast
6:00 PM 71 °F 65 °F 76% 29.77 in - Calm Calm - -  
6:00 PM 71.6 °F 64.4 °F 78% 29.77 in 6.2 mi Calm Calm - N/A   Scattered Clouds
6:30 PM 69.8 °F 66.2 °F 88% 29.80 in 6.2 mi WSW 4.6 mph - N/A   Scattered Clouds
6:58 PM 66.2 °F 60.8 °F 83% 29.86 in 6.2 mi SSW 17.3 mph 38.0 mph N/A   Overcast
7:00 PM 64.4 °F 59.0 °F 83% 29.86 in - SSW 19.6 mph 38.0 mph N/A   Overcast
7:12 PM 62.6 °F 60.8 °F 94% 29.86 in 0.8 mi South 21.9 mph 35.7 mph N/A   Overcast
7:30 PM 62.6 °F 60.8 °F 94% 29.89 in 6.2 mi SSW 13.8 mph 25.3 mph N/A   Overcast
7:32 PM 62.6 °F 60.8 °F 94% 29.89 in 6.2 mi SSW 12.7 mph - N/A   Overcast
8:00 PM 62.6 °F 60.8 °F 94% 29.89 in 6.2 mi SSW 11.5 mph - N/A   Overcast
8:30 PM 62.6 °F 59.0 °F 88% 29.86 in 6.2 mi SSW 13.8 mph - N/A   Overcast
9:00 PM 63 °F 59 °F 83% 29.90 in - SSW 10.4 mph - -  
9:00 PM 62.6 °F 59.0 °F 88% 29.89 in 6.2 mi SSW 10.4 mph - N/A   Scattered Clouds
9:30 PM 64.4 °F 59.0 °F 83% 29.89 in 6.2 mi South 10.4 mph - N/A   Mostly Cloudy
10:00 PM 64.4 °F 59.0 °F 83% 29.89 in 6.2 mi SSW 9.2 mph - N/A   Overcast
10:30 PM 64.4 °F 59.0 °F 83% 29.89 in 6.2 mi SSW 8.1 mph - N/A   Overcast
11:00 PM 64.4 °F 57.2 °F 77% 29.89 in 6.2 mi SSW 10.4 mph - N/A   Scattered Clouds
11:30 PM 64.4 °F 57.2 °F 77% 29.86 in 6.2 mi SSW 9.2 mph - N/A   Scattered Clouds